User: anonymous   Login
Location: Buckland
(65.9785°N, 161.1281°W)
Time: 12:14:39
(UTC+00:00)
Language:

Transit 2A Rocket - Orbit

View from above orbital plane
View from above orbital plane
View from above satellite
View from above satellite

Ground track
Ground track

The orbit data is extracted from the following two-line orbital elements,

1    47U 60007C   20334.69180671 +.00000107 +00000-0 +48695-4 0  9998
2    47 066.6667 073.1447 0228370 184.2645 175.6522 14.42116725158508
Epoch (UTC): 29 November 2020 16:36:12
Eccentricity: 0.0228370
inclination: 66.6667°
perigee height: 588 km
apogee height: 914 km
right ascension of ascending node: 73.1447°
argument of perigee: 184.2645°
revolutions per day: 14.42116725
mean anomaly at epoch: 175.6522°
orbit number at epoch: 15850

The dashed part of the orbit path shows where the satellite is in the earth's shadow,  

DLR